Wind_Speed
1 7 6 9 16 11 27 8 5 5 8 8 5 13 11 12 12 13 13 15 15 15 18 21 19 18 18 18 17 18 17 15 13 13 12 13 13 14 16 15 12 5 8 10
11 9 12 4 6 12 9 4 3 6 2 6 4 12 9 15 14 13 14 16 16 17 17 20 21 19 18 21 20 19 20 19 17 14 13 13 12 12 15 12 5 4 8 9
4 3 4 4 8 13 7 7 2 6 8 11 9 13 9 12 11 12 13 13 16 17 18 18 21 21 21 20 21 22 24 23 22 20 16 13 13 12 9 11 12 11 8 7
12 11 5 8 7 8 10 22 7 14 10 2 16 3 8 9 13 14 14 14 14 17 17 17 20 23 23 23 22 23 23 22 22 22 19 19 16 18 19 17 16 8 4 5
7 10 9 2 7 9 9 4 4 5 13 11 15 7 5 12 11 13 13 16 15 15 17 18 21 26 24 23 23 24 23 22 22 22 22 19 21 19 14 11 12 7 6 6
10 17 4 2 3 6 6 9 11 12 15 12 14 16 6 8 8 8 9 11 14 15 16 16 20 20 22 23 22 22 23 22 20 21 20 19 19 13 16 16 9 12 17 9
14 16 14 9 13 9 9 16 11 4 7 7 7 15 8 12 9 7 5 2 6 12 15 15 14 18 21 20 19 18 18 12 6 7 10 9 7 6 7 13 17 22 18 9
8 10 21 10 10 17 3 18 8 11 12 7 14 3 5 11 12 12 8 2 4 10 12 16 15 17 17 16 25 24 26 28 24 21 20 19 15 10 8 10 17 26 18 14
15 17 14 10 8 10 13 16 16 16 19 17 15 6 12 17 15 12 12 7 7 7 13 13 5 7 13 25 20 25 31 28 27 25 26 20 16 11 12 14 17 16 16 6
13 17 13 13 3 11 12 17 13 11 15 15 17 12 8 6 13 15 11 9 7 7 11 13 14 22 25 25 23 22 24 26 22 18 10 10 2 7 5 9 7 12 9 6
15 15 16 16 14 14 10 12 12 16 12 11 12 2 9 5 10 16 12 12 9 10 8 8 13 19 21 22 22 21 18 14 5 5 3 10 12 12 6 4 6 7 4 5
10 13 13 18 14 11 9 15 16 12 13 14 12 12 10 12 11 14 13 11 9 9 9 8 12 16 19 20 18 13 10 1 2 3 4 10 11 10 8 6 5 4 6 6
6 8 13 18 16 18 10 12 15 19 17 20 15 11 11 13 13 15 12 10 9 8 9 9 12 12 14 17 12 8 6 3 5 9 11 11 12 10 8 7 9 9 6 5
5 14 17 15 18 16 13 13 17 16 11 16 15 16 13 8 11 9 11 11 10 9 9 9 8 11 12 9 6 6 6 5 5 8 9 10 8 9 10 10 10 7 6 5
9 15 16 19 19 20 19 22 18 21 22 17 19 19 9 12 12 10 11 12 13 14 14 13 13 14 11 9 9 9 9 8 7 7 9 10 10 9 8 7 7 7 7 6
12 15 12 19 18 19 21 23 21 20 16 19 19 18 14 13 14 12 10 9 10 11 11 10 11 14 13 13 13 12 12 12 12 10 10 9 9 9 8 6 6 6 6 6
15 14 12 17 15 18 13 15 20 13 12 13 9 7 7 6 10 11 12 11 11 11 11 11 10 15 14 12 10 11 13 12 10 10 9 8 8 8 7 6 5 6 7 7
14 13 12 13 15 17 5 10 10 7 6 5 6 7 4 9 11 12 14 14 13 13 12 11 10 10 11 10 10 10 10 9 8 9 10 9 8 7 7 6 5 6 7 8
10 11 12 12 13 13 10 7 4 5 3 3 6 6 9 9 10 10 10 9 11 13 13 12 11 13 12 12 11 9 8 8 7 7 6 7 6 5 5 6 5 7 8 10
12 5 10 10 9 13 6 9 3 3 11 8 9 8 9 8 7 10 11 8 11 13 13 15 15 15 14 12 11 9 8 5 4 4 4 5 4 6 6 6 7 9 11 13
10 10 13 12 11 6 11 6 3 7 3 3 5 4 7 3 7 13 18 11 11 13 15 15 17 17 15 14 11 9 8 6 5 4 5 5 5 5 6 7 9 10 12 13
9 9 10 7 9 2 4 7 3 6 2 2 3 4 8 6 5 8 10 9 10 12 15 18 17 17 16 14 12 10 9 7 7 7 7 7 8 9 9 10 10 11 13 16
8 9 1 3 2 2 2 7 6 2 3 3 5 5 9 6 6 5 7 9 11 14 17 18 18 17 16 15 12 10 9 8 9 9 9 10 11 12 13 13 14 15 18 21
7 5 6 3 7 5 3 6 3 1 4 5 7 5 2 6 7 5 5 7 10 15 17 18 17 16 14 14 13 11 9 9 9 9 11 13 15 16 16 17 18 18 20 20
4 10 6 7 6 3 5 4 7 5 6 5 5 3 3 2 8 5 7 7 11 13 15 16 15 15 14 14 13 12 10 9 9 10 12 13 15 15 15 17 16 17 18 15
6 7 4 3 3 4 10 6 10 8 8 6 5 3 2 2 6 7 7 10 12 13 14 15 15 15 15 15 14 12 10 10 11 11 13 13 11 12 13 14 16 21 23 21
Wind_Direction
212 261 228 272 107 247 217 129 224 256 95 299 299 214 147 182 209 195 186 187 196 200 183 178 196 185 182 180 186 188 195 190 192 198 216 217 230 228 236 239 243 257 263 263
202 215 235 323 185 238 262 228 336 208 54 270 240 261 214 194 195 213 190 187 200 196 191 186 187 193 198 186 188 196 201 200 202 209 221 234 235 231 221 234 170 199 278 270
298 298 52 236 237 242 222 160 202 296 213 233 250 236 227 215 186 204 206 197 193 201 199 186 185 195 200 199 191 199 203 204 206 216 214 223 242 266 262 244 252 242 218 250
186 272 242 240 249 276 106 279 177 214 242 132 261 170 180 188 184 197 205 197 206 197 203 192 192 196 207 205 205 204 206 209 211 214 227 217 225 225 227 239 239 171 172 231
333 221 216 292 331 316 163 321 301 257 256 255 183 246 319 167 165 180 204 198 206 202 205 208 197 197 209 214 207 206 200 211 219 214 226 232 227 253 271 273 223 152 152 158
181 286 250 295 309 305 335 254 229 244 253 266 52 311 124 320 117 108 164 194 205 210 202 208 211 202 202 214 217 212 191 196 213 220 230 249 278 287 301 300 272 193 181 163
242 236 232 238 258 192 246 270 272 278 329 334 51 226 143 196 104 94 95 81 210 218 214 204 214 203 204 208 210 215 176 155 144 111 85 81 51 27 6 340 325 194 154 134
239 233 258 219 242 280 276 301 288 262 269 249 160 314 81 101 116 112 112 79 324 271 235 210 200 207 200 208 97 104 107 107 101 91 74 59 48 36 31 42 50 49 67 97
275 266 167 193 248 265 278 247 266 295 282 286 274 236 157 149 143 124 94 76 44 39 19 214 168 232 138 102 107 115 115 113 109 102 83 62 52 46 70 82 94 89 74 43
292 285 283 288 193 259 264 289 287 235 280 298 312 289 347 29 155 113 101 75 63 73 46 45 51 71 86 100 108 114 117 119 118 105 39 3 238 142 111 93 99 98 107 134
271 263 256 256 215 248 217 226 229 269 282 295 297 311 77 134 44 103 102 78 54 52 51 58 70 83 98 112 117 116 119 116 104 355 349 177 167 174 153 130 113 113 133 145
253 270 261 258 255 242 279 294 298 289 269 244 257 272 76 96 85 99 98 105 86 74 66 72 86 98 100 103 110 117 137 139 334 27 121 143 156 131 142 128 119 106 162 159
329 245 258 247 241 240 227 268 257 255 267 270 281 287 110 113 105 106 122 120 113 104 92 81 78 89 92 113 130 153 167 143 114 118 124 138 138 147 146 142 159 166 175 185
325 271 274 284 302 324 296 282 295 299 277 291 282 279 125 128 123 123 116 128 124 124 122 115 107 108 115 135 137 137 124 130 131 134 134 135 138 148 148 155 157 161 175 199
258 276 293 294 300 300 298 286 282 278 283 280 295 307 110 134 132 133 128 138 150 153 153 144 146 151 144 132 126 119 118 132 133 128 133 134 139 145 141 156 155 164 171 193
259 267 257 269 254 248 255 268 289 271 265 271 266 265 82 100 114 120 143 153 151 143 142 142 146 152 155 153 153 143 141 140 145 141 142 144 143 145 148 162 168 177 197 220
281 288 285 277 281 283 267 257 248 242 285 320 297 122 161 107 126 146 158 175 163 152 159 159 155 160 157 157 151 145 141 145 150 144 137 148 155 155 159 165 194 208 227 240
264 263 270 272 276 263 349 22 343 260 241 269 278 72 66 134 134 158 161 179 155 155 158 156 149 135 142 141 142 138 146 143 153 148 151 158 171 176 177 186 213 241 252 251
273 260 257 249 249 267 173 182 284 276 327 236 111 130 127 132 138 146 155 149 151 144 151 143 157 147 146 142 143 142 137 153 166 154 161 172 192 211 221 232 243 261 275 278
241 236 270 254 272 282 62 81 105 342 286 116 133 157 144 168 217 142 93 152 147 157 139 155 156 149 151 151 157 160 154 173 174 173 191 205 220 242 249 262 267 275 271 268
225 226 229 228 257 285 87 126 142 246 62 105 168 144 148 187 51 139 171 165 162 161 155 153 157 160 161 164 165 169 165 182 193 209 220 225 235 248 253 263 273 278 278 283
276 229 260 273 265 272 58 160 295 71 189 130 128 127 110 98 114 146 159 158 156 158 154 165 168 165 170 173 177 181 186 190 197 210 222 228 239 254 276 239 263 270 276 274
250 275 222 288 43 5 350 68 98 342 115 102 106 121 135 151 134 145 155 158 160 167 167 174 176 175 180 181 189 195 198 200 207 218 231 243 252 260 263 263 270 268 258 254
217 242 260 215 138 176 163 112 120 206 111 127 112 124 154 187 128 155 152 167 170 173 177 185 186 181 186 190 198 207 199 212 226 240 247 253 255 256 259 263 261 250 254 247
115 285 226 256 195 201 185 202 146 164 140 123 117 92 93 278 151 171 163 175 178 182 188 197 199 191 195 197 205 212 217 223 241 257 260 264 266 257 254 240 258 264 272 280
177 211 223 40 11 251 126 162 156 164 170 179 162 135 17 252 193 167 178 187 194 193 198 204 207 205 204 203 210 216 224 232 252 266 259 256 274 282 269 268 260 247 249 256
Height
774 777 784 765 777 788 781 777 774 762 754 765 768 774 768 758 758 763 766 772 776 779 781 789 796 799 804 811 817 821 825 828 831 834 834 835 834 836 837 837 838 840 844 844
772 812 764 754 755 767 765 765 780 762 754 763 763 766 752 748 753 751 757 764 770 773 775 783 790 796 801 806 812 818 821 825 828 830 831 830 830 830 831 833 835 839 843 844
784 759 747 755 768 761 753 768 781 776 757 757 763 765 753 738 739 746 747 753 760 766 770 776 785 792 796 801 806 812 816 820 824 826 828 830 831 830 831 832 834 836 841 843
776 753 764 753 758 751 802 761 754 762 764 800 760 811 755 741 747 746 749 750 755 759 764 768 778 785 791 794 800 806 812 817 821 824 825 827 828 828 829 830 830 832 836 840
781 757 757 766 759 749 779 742 747 750 754 747 756 763 781 734 744 743 742 744 748 751 757 762 767 776 784 788 794 799 806 813 817 820 822 824 826 828 828 827 830 827 832 837
759 745 746 751 747 746 745 749 748 744 745 765 790 778 764 787 747 736 733 737 742 746 750 756 762 769 777 782 787 791 798 807 814 818 821 825 826 829 827 828 829 825 828 834
758 756 738 741 754 743 751 754 772 788 810 790 787 777 753 747 730 734 742 741 739 741 746 753 759 763 771 777 782 787 793 804 812 817 822 823 827 828 829 829 831 824 826 837
780 796 756 734 751 760 763 768 780 821 779 766 787 835 747 725 729 737 745 751 754 748 742 747 753 760 767 773 784 789 795 805 816 821 825 827 829 830 829 828 831 825 809 824
762 761 727 734 735 743 756 764 738 761 746 757 737 733 707 709 725 733 746 757 758 755 753 746 753 758 763 778 790 795 799 809 815 818 823 830 831 836 835 830 823 823 832 837
750 771 737 733 734 739 750 739 767 754 793 795 761 749 762 734 720 735 751 764 767 766 771 773 775 777 783 790 798 805 809 812 815 817 817 815 823 833 832 829 830 824 828 830
747 755 758 740 747 756 749 757 754 751 757 777 779 756 721 730 724 737 759 773 783 785 787 787 788 790 794 800 806 810 814 817 819 817 815 822 825 832 832 830 829 827 834 837
743 751 765 753 725 722 730 743 743 764 770 750 757 754 718 729 739 746 776 784 791 794 795 795 797 799 803 807 811 815 817 819 820 819 819 825 830 828 831 830 830 831 837 838
744 760 774 760 739 724 739 739 738 738 740 760 767 754 728 739 750 762 777 788 795 798 800 802 803 805 808 812 816 818 819 820 820 820 823 827 828 830 830 829 833 836 838 839
759 760 767 776 758 744 758 752 743 744 761 754 744 738 746 748 762 775 778 788 796 800 803 805 807 809 812 814 816 818 819 820 821 822 824 826 828 830 832 835 835 837 839 841
756 773 762 754 749 748 751 751 752 757 751 761 747 743 740 747 750 769 778 785 790 793 795 799 805 808 810 814 816 818 820 821 823 824 825 826 829 831 833 836 836 837 839 843
746 767 763 769 755 758 767 754 751 744 747 745 746 748 734 745 755 771 780 784 785 787 793 798 802 807 810 812 814 816 819 821 823 825 826 829 830 832 833 837 837 839 841 842
762 763 769 777 752 752 761 750 747 743 744 748 764 756 742 756 761 774 781 784 784 788 794 797 801 805 809 811 814 816 817 821 824 824 827 829 832 833 834 835 839 839 840 841
760 769 768 776 764 788 744 732 730 738 736 745 736 742 745 753 755 760 767 771 775 781 789 794 800 804 808 811 813 818 820 820 823 824 825 829 831 832 832 833 835 837 837 837
746 758 767 775 767 751 744 741 746 748 752 735 740 750 751 751 753 762 765 770 773 781 787 795 802 805 809 812 816 818 820 823 824 825 826 827 830 831 831 831 832 835 834 834
746 750 765 762 775 783 751 737 738 742 774 739 743 751 754 755 766 762 768 775 776 784 788 797 801 806 811 815 817 819 820 822 823 823 826 828 828 830 830 830 831 832 833 832
757 760 765 760 767 750 738 739 738 775 771 743 743 747 751 760 762 767 774 777 781 785 789 794 802 806 811 814 817 819 820 822 823 825 826 827 828 829 829 830 830 830 830 830
759 767 755 751 761 774 737 741 759 757 749 747 745 749 754 762 763 764 770 777 781 784 790 796 801 805 810 814 816 818 819 821 822 824 825 825 826 826 824 826 826 827 827 825
767 753 771 765 767 750 741 744 746 746 749 748 749 752 756 763 766 768 771 776 781 786 792 796 799 804 808 812 815 816 818 820 821 822 823 823 823 823 823 823 823 823 821 819
745 742 752 753 742 745 745 745 747 748 748 749 752 756 758 761 765 770 774 778 782 787 791 794 797 801 806 810 813 814 816 818 819 819 820 819 819 818 818 817 815 815 813 811
771 752 747 748 742 744 743 744 747 750 751 753 756 759 761 762 766 771 776 780 783 786 790 793 795 799 804 808 811 812 813 815 815 815 814 813 812 811 811 811 811 809 807 807
736 740 748 757 743 743 744 745 748 753 755 756 758 763 764 763 764 769 774 779 783 786 789 792 794 797 801 805 808 810 811 812 813 811 810 807 806 804 803 803 802 802 802 802